[[{"header":{"parameterUnit":"m.s-1","parameterCategory":1,"la1":30.2991,"la2":30.254,"lo1":-89.0895,"lo2":-89.0444,"dy":0.0017,"dx":0.0017,"nx":28,"ny":28,"refTime":"2026-01-31T03:00:00:Z","depth":0,"parameterNumber":2,"parameterNumberName":"U-component_of_WINDS"},"data":[0,0,0,0,0,0,0,0,0,0,0,0,0,0,0,0,0,0,0,0,0,0,0,0,0,0,0,0,0,0,0,0,0,0,0,0,0,0,0,0,0,0,0,0,0,0,0,0,0,0,0,0,0,0,0,0,0,0,2.3971,2.3972,0,2.4052,2.4053,2.4054,2.4032,2.403,2.4028,2.4027,2.4113,2.4117,2.412,0,0,0,0,0,0,0,0,0,0,0,0,0,2.3803,2.3806,2.3971,2.3972,2.3973,2.4052,2.4053,2.4054,2.4032,2.403,2.4028,2.4026,2.4112,2.4116,2.4121,0,0,0,0,0,0,0,0,0,0,0,0,0,2.3879,2.3807,2.3971,2.3971,2.3972,2.4052,2.4053,2.4055,2.4033,2.403,2.4028,2.4025,2.411,2.4116,2.4121,2.4206,0,0,2.4139,2.4141,0,0,0,0,0,0,0,0,2.3875,2.3885,2.397,2.3971,2.3973,2.4029,2.4025,2.4106,2.4033,2.401,2.4027,2.4024,2.4087,2.4095,2.4116,2.421,2.4214,2.4139,2.4143,2.4145,2.4147,0,0,0,0,0,0,0,2.387,2.3882,2.4003,2.3972,2.3973,2.397,2.3978,2.4041,2.4061,2.4012,2.401,2.402,2.4087,2.411,2.4117,2.4215,2.4139,2.4144,2.4148,2.415,2.439,2.4393,0,0,0,0,0,0,2.3863,2.3878,2.4001,2.4006,2.3917,2.3975,2.3984,2.4014,2.4061,2.4065,2.4022,2.4019,2.4101,2.4111,2.412,2.4227,2.4145,2.4151,2.4154,2.4387,2.4391,2.4394,0,0,0,0,0,0,2.3859,2.3874,2.3997,2.3941,2.3957,2.398,2.4014,2.4017,2.4039,2.4068,2.4073,2.4041,2.41,2.4112,2.4186,2.4229,2.4153,2.4159,2.4384,2.4389,2.4393,2.4438,0,0,0,0,0,0,2.3855,2.3873,2.3903,2.3942,2.396,2.406,2.4016,2.402,2.4049,2.4045,2.4087,2.4092,2.4099,2.4178,2.4192,2.4236,2.4163,2.438,2.4386,2.4391,2.4432,2.4443,2.4452,0,0,0,0,0,2.3849,2.3912,2.3905,2.392,2.3998,2.4062,2.4073,2.4079,2.4052,2.4085,2.4105,2.4091,2.4222,2.4186,2.4201,2.4247,2.4378,2.4384,2.4391,2.4428,2.4441,2.4452,0,0,0,0,0,0,2.3877,2.3917,2.3909,2.3987,2.4022,2.4058,2.4099,2.4091,2.4134,2.4129,2.4136,2.4146,2.4223,2.4242,2.4201,2.4335,2.4296,2.4306,2.4319,2.4332,2.4341,2.4336,2.4168,0,0,0,0,0,2.3893,2.394,2.3973,2.4038,2.4056,2.4075,2.4103,2.4105,2.4141,2.4156,2.4181,2.4218,2.4268,2.4301,2.4348,2.4435,2.4447,2.4475,2.4485,2.4493,2.4502,2.4555,2.4569,2.4416,2.4416,2.4416,0,0,2.3925,2.3953,2.3982,2.4045,2.4072,2.4124,2.4087,2.4142,2.4181,2.4164,2.4237,2.4257,2.4299,2.4381,2.4419,2.44,2.4547,2.4502,2.4508,2.4512,2.4563,2.4577,2.459,2.442,2.442,2.4419,0,0,2.4011,2.4035,2.4094,2.4123,2.4165,2.4178,2.4192,2.4231,2.4244,2.4317,2.4307,2.4355,2.444,2.4472,2.4499,2.4603,2.4593,2.4618,2.467,2.4721,2.4733,2.4744,2.4785,2.4799,2.4627,2.4627,2.4627,0,2.4045,2.4121,2.4126,2.4183,2.4213,2.4201,2.4264,2.4292,2.4347,2.4369,2.4348,2.4458,2.4485,2.4577,2.4603,2.4624,2.4644,2.4613,2.4731,2.4742,2.4752,2.4791,2.4806,2.463,2.463,2.4629,2.4629,0,2.4164,2.4217,2.426,2.4315,2.435,2.4409,2.4426,2.4462,2.4462,2.4478,2.4556,2.4588,2.4645,2.4666,2.4666,2.476,2.4748,2.4728,2.469,2.4769,2.4806,2.4821,2.4634,2.4633,2.4632,2.4632,0,0,2.4267,2.4327,2.4344,2.4371,2.4418,2.446,2.4522,2.4577,2.4609,2.4648,2.4702,2.4777,2.4761,2.4792,2.4797,2.4841,2.4927,2.4817,2.4818,2.4839,2.5037,2.5052,2.5069,2.492,2.4923,2.4925,2.5034,0,2.4359,2.4465,2.4474,2.4571,2.4623,2.4615,2.4669,2.4706,2.4724,2.4772,2.4792,2.4847,2.4819,2.4839,2.4883,2.4907,2.4967,2.4899,2.4973,2.4976,2.4965,2.5088,2.5103,2.5204,2.5048,2.5051,2.5052,0,2.4479,2.4525,2.4627,2.4672,2.4694,2.4742,2.4796,2.4841,2.4885,2.4895,2.4933,2.4932,2.4999,2.4958,2.5052,2.5006,2.5037,2.5054,2.5058,2.5066,2.502,2.5102,2.5236,2.5252,2.5074,2.5073,2.5071,0,2.4549,2.4635,2.4708,2.4731,2.4785,2.482,2.4844,2.4885,2.4919,2.4967,2.499,2.5045,2.5076,2.512,2.5136,2.5104,2.5231,2.519,2.5244,2.5244,2.5272,2.527,2.5415,2.5289,2.5289,2.5288,2.5288,0,2.4651,2.4715,2.4741,2.4786,2.4859,2.487,2.4943,2.4965,2.5003,2.5055,2.5051,2.5101,2.5118,2.5171,2.5184,2.5263,2.5276,2.5289,2.5292,2.529,2.5289,2.5311,2.5306,2.5292,2.5292,2.5291,2.529,0,2.474,2.476,2.484,2.4886,2.4899,2.4951,2.4991,2.5037,2.5055,2.5122,2.5138,2.5168,2.5231,2.5252,2.5327,2.5337,2.5429,2.5425,2.5415,2.5416,2.547,2.5466,2.5636,2.5661,2.5516,2.5517,2.5519,0,2.4805,2.4854,2.4906,2.4941,2.4967,2.5022,2.5058,2.5073,2.511,2.5167,2.5207,2.5269,2.532,2.5422,2.5452,2.5511,2.551,2.5566,2.5519,2.5517,2.5515,2.5512,2.5519,2.5575,2.5577,2.5578,2.5579,0,2.492,2.4928,2.4979,2.5036,2.5079,2.5124,2.5167,2.5196,2.5218,2.5261,2.5326,2.5366,2.5445,2.5509,2.557,2.5597,2.5594,2.5594,2.561,2.5609,2.5602,2.561,2.5441,2.559,2.5588,2.5588,2.5587,2.5587,2.5001,2.5046,2.5091,2.5149,2.5184,2.5226,2.5273,2.5299,2.5352,2.5418,2.5424,2.5495,2.5542,2.5625,2.5656,2.5713,2.5698,2.572,2.5726,2.5732,2.5738,2.5592,2.5724,2.5724,2.5724,2.5723,2.5723,0,2.5117,2.5147,2.5201,2.5263,2.531,2.5302,2.5351,2.5392,2.5454,2.5498,2.555,2.5627,2.569,2.5726,2.579,2.583,2.583,2.5846,2.5844,2.5852,2.5747,2.5728,2.5845,2.5845,2.5845,2.5845,2.5845,2.5845,2.5184,2.5261,2.5276,2.5373,2.5402,2.5471,2.5501,2.5541,2.5577,2.5663,2.5715,2.5739,2.5782,2.5849,2.5908,2.5918,2.5943,2.5961,2.597,2.5871,2.5858,2.5847,2.5829,2.5966,2.5966,2.607,2.6071,2.6072]},{"header":{"parameterUnit":"m.s-1","parameterCategory":1,"la1":30.2991,"la2":30.254,"lo1":-89.0895,"lo2":-89.0444,"dy":0.0017,"dx":0.0017,"nx":28,"ny":28,"refTime":"2026-01-31T03:00:00:Z","depth":0,"parameterNumber":3,"parameterNumberName":"V-component_of_WINDS"},"data":[0,0,0,0,0,0,0,0,0,0,0,0,0,0,0,0,0,0,0,0,0,0,0,0,0,0,0,0,0,0,0,0,0,0,0,0,0,0,0,0,0,0,0,0,0,0,0,0,0,0,0,0,0,0,0,0,0,0,-3.3981,-3.3979,0,-3.3781,-3.3779,-3.3776,-3.3733,-3.3735,-3.3736,-3.3738,-3.3521,-3.3514,-3.3507,0,0,0,0,0,0,0,0,0,0,0,0,0,-3.4316,-3.431,-3.3981,-3.3979,-3.3976,-3.3781,-3.3779,-3.3776,-3.3733,-3.3735,-3.3737,-3.3738,-3.3524,-3.3515,-3.3507,0,0,0,0,0,0,0,0,0,0,0,0,0,-3.4148,-3.4308,-3.3982,-3.3932,-3.3925,-3.3782,-3.3778,-3.3775,-3.3733,-3.3735,-3.3737,-3.3739,-3.3526,-3.3516,-3.3505,-3.3394,0,0,-3.3473,-3.3468,0,0,0,0,0,0,0,0,-3.4158,-3.4136,-3.3941,-3.3935,-3.3927,-3.3785,-3.3817,-3.3647,-3.3732,-3.3805,-3.3738,-3.374,-3.3606,-3.3589,-3.3546,-3.3384,-3.3375,-3.3472,-3.3465,-3.346,-3.3457,0,0,0,0,0,0,0,-3.417,-3.4144,-3.3902,-3.3939,-3.393,-3.3916,-3.3894,-3.3785,-3.3695,-3.3799,-3.3796,-3.3773,-3.3603,-3.3557,-3.3541,-3.3372,-3.3472,-3.3462,-3.3456,-3.3452,-3.3107,-3.3104,0,0,0,0,0,0,-3.4191,-3.4154,-3.3908,-3.3896,-3.4051,-3.3908,-3.3884,-3.3828,-3.3696,-3.3679,-3.3771,-3.3772,-3.3574,-3.3553,-3.3533,-3.3393,-3.3461,-3.345,-3.3444,-3.3109,-3.3106,-3.3103,0,0,0,0,0,0,-3.4199,-3.417,-3.3916,-3.4024,-3.3991,-3.39,-3.3837,-3.3823,-3.3777,-3.3676,-3.3658,-3.3742,-3.3575,-3.3548,-3.343,-3.3385,-3.3446,-3.3436,-3.3113,-3.3108,-3.3105,-3.3114,0,0,0,0,0,0,-3.4209,-3.4173,-3.4132,-3.4024,-3.3985,-3.3819,-3.3834,-3.3817,-3.376,-3.3759,-3.3643,-3.3626,-3.3575,-3.3446,-3.3419,-3.3371,-3.3427,-3.3116,-3.3111,-3.3106,-3.3117,-3.3111,-3.3105,0,0,0,0,0,-3.4221,-3.414,-3.413,-3.4101,-3.3933,-3.3817,-3.3794,-3.374,-3.3757,-3.3713,-3.3648,-3.3629,-3.3395,-3.3434,-3.3403,-3.3352,-3.3119,-3.3112,-3.3106,-3.312,-3.3112,-3.3105,0,0,0,0,0,0,-3.4241,-3.4125,-3.4113,-3.3995,-3.3917,-3.381,-3.3753,-3.3734,-3.3646,-3.3648,-3.3581,-3.3555,-3.344,-3.3384,-3.343,-3.3237,-3.3257,-3.3245,-3.3278,-3.3269,-3.3264,-3.3278,-3.3419,0,0,0,0,0,-3.4233,-3.4152,-3.4053,-3.3959,-3.3921,-3.3844,-3.3791,-3.3757,-3.3671,-3.3637,-3.3563,-3.3477,-3.3384,-3.3324,-3.3233,-3.311,-3.3082,-3.3059,-3.3053,-3.3049,-3.3038,-3.2967,-3.2955,-3.3083,-3.3083,-3.3083,0,0,-3.4213,-3.414,-3.4092,-3.3962,-3.3897,-3.3811,-3.3816,-3.3725,-3.366,-3.3621,-3.3506,-3.3449,-3.3349,-3.3228,-3.317,-3.3177,-3.2997,-3.3041,-3.3038,-3.3029,-3.2959,-3.2947,-3.2936,-3.3079,-3.308,-3.308,0,0,-3.4134,-3.4071,-3.3986,-3.3922,-3.3825,-3.3775,-3.3754,-3.365,-3.3612,-3.3496,-3.3466,-3.3386,-3.3227,-3.3157,-3.31,-3.2996,-3.2975,-3.2968,-3.2936,-3.2867,-3.2857,-3.2848,-3.2809,-3.2796,-3.2958,-3.2958,-3.2958,0,-3.412,-3.3994,-3.3943,-3.3854,-3.3797,-3.3763,-3.3674,-3.3613,-3.3489,-3.3449,-3.346,-3.3261,-3.3191,-3.3052,-3.3027,-3.2983,-3.2955,-3.298,-3.2864,-3.2854,-3.2844,-3.2806,-3.2792,-3.2958,-3.2958,-3.2958,-3.2958,0,-3.3981,-3.3893,-3.3835,-3.3722,-3.3658,-3.3569,-3.3502,-3.3443,-3.3415,-3.3363,-3.3244,-3.3159,-3.305,-3.3015,-3.2985,-3.2872,-3.2879,-3.2878,-3.2896,-3.2833,-3.2795,-3.278,-3.2957,-3.2957,-3.2957,-3.2958,0,0,-3.3906,-3.3768,-3.3747,-3.3695,-3.3587,-3.3516,-3.3425,-3.3323,-3.3272,-3.3189,-3.3109,-3.2977,-3.2975,-3.2911,-3.2873,-3.2813,-3.2734,-3.2819,-3.2815,-3.2804,-3.2602,-3.2602,-3.2586,-3.2721,-3.2718,-3.2716,-3.261,0,-3.3811,-3.3652,-3.3605,-3.3469,-3.3386,-3.3354,-3.3274,-3.3197,-3.3146,-3.3066,-3.3008,-3.2915,-3.2921,-3.2882,-3.2822,-3.2757,-3.2692,-3.2764,-3.2642,-3.2638,-3.2666,-3.2567,-3.2567,-3.2471,-3.2595,-3.2593,-3.2591,0,-3.3679,-3.3598,-3.3455,-3.3358,-3.3321,-3.3251,-3.3153,-3.3079,-3.299,-3.2957,-3.2887,-3.2854,-3.2754,-3.2781,-3.2641,-3.2691,-3.2639,-3.2599,-3.2594,-3.2578,-3.2609,-3.2546,-3.2439,-3.2424,-3.2568,-3.257,-3.2571,0,-3.3637,-3.3491,-3.3387,-3.3343,-3.3228,-3.3179,-3.3128,-3.3042,-3.2984,-3.2897,-3.2858,-3.276,-3.2705,-3.2628,-3.2568,-3.2594,-3.2433,-3.2455,-3.24,-3.2401,-3.2365,-3.2368,-3.2246,-3.2335,-3.2336,-3.2336,-3.2336,0,-3.3535,-3.3448,-3.3366,-3.3302,-3.3203,-3.3149,-3.3052,-3.2998,-3.2922,-3.2845,-3.281,-3.2737,-3.2664,-3.258,-3.2533,-3.2423,-3.2399,-3.2367,-3.2354,-3.2368,-3.2372,-3.2331,-3.2335,-3.2332,-3.2333,-3.2334,-3.2334,0,-3.3469,-3.3411,-3.3295,-3.3197,-3.317,-3.3102,-3.3016,-3.295,-3.29,-3.2801,-3.2775,-3.2693,-3.2593,-3.2528,-3.2398,-3.2366,-3.2246,-3.2237,-3.2277,-3.2271,-3.2219,-3.2224,-3.2064,-3.2039,-3.2148,-3.2147,-3.2146,0,-3.3407,-3.334,-3.3236,-3.3184,-3.3133,-3.3049,-3.299,-3.2934,-3.2873,-3.2768,-3.2714,-3.2613,-3.2529,-3.237,-3.2297,-3.2198,-3.2184,-3.2135,-3.2168,-3.2184,-3.218,-3.2184,-3.2176,-3.2128,-3.2127,-3.2127,-3.2126,0,-3.3301,-3.3277,-3.3196,-3.3105,-3.3037,-3.2961,-3.2885,-3.2843,-3.2773,-3.2706,-3.2606,-3.2541,-3.2412,-3.231,-3.2205,-3.2148,-3.2123,-3.2117,-3.2098,-3.2111,-3.2136,-3.212,-3.226,-3.212,-3.2121,-3.2121,-3.2121,-3.2122,-3.3234,-3.3173,-3.3091,-3.3001,-3.2939,-3.287,-3.2804,-3.2746,-3.2663,-3.2556,-3.2527,-3.2421,-3.2333,-3.219,-3.2132,-3.2046,-3.2051,-3.2025,-3.2018,-3.2011,-3.201,-3.2153,-3.2027,-3.2027,-3.2027,-3.2027,-3.2027,0,-3.3125,-3.3072,-3.299,-3.2887,-3.2816,-3.2806,-3.2721,-3.2661,-3.2571,-3.2493,-3.2412,-3.2296,-3.2198,-3.2119,-3.2017,-3.1963,-3.1949,-3.1938,-3.194,-3.1927,-3.2013,-3.2038,-3.1951,-3.1951,-3.1951,-3.1951,-3.1951,-3.1951,-3.306,-3.2957,-3.2923,-3.2787,-3.2733,-3.2633,-3.2585,-3.2519,-3.2457,-3.2331,-3.2251,-3.2202,-3.2122,-3.2015,-3.1923,-3.1902,-3.1865,-3.1855,-3.1831,-3.1912,-3.1921,-3.1929,-3.1952,-3.1848,-3.1848,-3.1752,-3.1751,-3.1751]}]]